Погода в Рыбинске

Погода в Рыбинске : погода сейчас, прогноз погоды и архив. Всё, что Вы хотите узнать о погоде в Рыбинске!

Хотите узнать прогноз погоды в Рыбинске? Тогда Вам сюда: Погода в Рыбинске

Поиск расширенной информации на нашем сайте:

Другие новости

Новости СМИ2

Главная страница сайта

Новости сайта

02.10.2013

Напоминаем, что на нашем новом сайте вы можете получить высокодетализированные прогнозы погоды по пунктам России, СНГ и мира (включающие важные для авиации метеовеличины, такие как направление и скорость ветра, видимость, явления погоды, количество и форма облачности, нижняя и верхняя граница облачности), а также ознакомиться с разнообразными материалами по авиационной метеорологии и подборкой полезных ссылок на эту тему.

Сайт Метеоцентр.Азия посвящён разработке технологий оптимизации авиаметеорологического обслуживания, включая проектирование и перспективное создание нескольких автоматизированных авиаметеорологических систем:
- система выпуска высокодетальных прогностических карт явлений погоды для нижнего воздушного пространства по России и ближнему зарубежью;
- система верификации прогнозов TAF (выпускаемых синоптиками официальных АМСГ РФ и ближнего зарубежья) и AUTOTAF (выпускаемых сайтом Метеоцентр.Азия) - выявление ошибок, онлайн-сопоставление с фактической погодой METAR, автоматическое внесение коррективов в прогнозы при резком отклонении фактической погоды от прогноза, подсчёт оправдываемости прогнозов по элементам и в целом;
- система обработки, анализа и отображения авиаметеорологической информации для применения провайдерами метеорологической информации.

Рекомендуем: Женский журнал http://clubkrasotki.ru

Погода в Рыбинске - сегодня

Время (UTC), дата Ветер
(°,м/с) 
Видим.   Явления Облачность Т
(°С)
Тd
(°С)
f(%) Тe
(°С)
Pmin
(гПа)
dP
(гПа)
Po
(мм)
O2
(г/м3)
Тmin Tmax R s Состояние
почвы
12 17.02.17 тихо ()   11000 м    10/10 2000 м 
[Ns]
-2.7 -6.2 77 -3  1008.2  -1.4  746  304           
15 17.02.17 230 (ЮЗ) 10 км  {снег}  10/10 2000 м 
[Ns]
-2.5 -5 83 -2  1007.3  -1  746  304    -2.5  0.0     
18 17.02.17 тихо ()   8000 м  слаб. снег  10/10 2000 м 
[Ns]
-2.7 -4 91 -3  1006.1  -1.2  745  303           
21 17.02.17 240 (ЮЗ) 8000 м  слаб. снег  10/10 2000 м 
[Ns]
-1.9 -3.5 89 -1  1004.7  -1.3  744  302           
00 18.02.17 250 (З) 8000 м  слаб. снег  10/10 2000 м 
[Ns]
-1.4 -2.4 93 -1  1003.7  -1  743  301           
03 18.02.17 250 (З) 11000 м  {снег}  10/10 2000 м 
[Ns]
-0.6 -1.6 93 -1  1003.3  -0.3  743  300  -2.7       
06 18.02.17 260 (З) 9000 м  в посл. час снег  10/10 2000 м 
[Ns]
+0.2 -0.8 93 -1  1004  0.7  743  299           
09 18.02.17 280 (З) 16000 м  {снег}  10/0 средняя 
[As op]
+1.3 -2.8 74 1003.8  -0.2  743  298           
12 18.02.17 280 (З) 3{10}  24000 м  {снег}  9/9 300 м 
[Sc]
+1.9 -3.2 69 1003  -0.7  743  297           
15 18.02.17 270 (З) 15000 м    10/10 300 м 
[Sc]
+0.9 -4.1 69 -1  1003.3  0.2  743  299    +1.9       
18 18.02.17 270 (З) 4-10{10}  11000 м    10/10 300 м 
[Sc]
+0.7 -3.6 73 -2  1002.3  -1  742  299           
21 18.02.17 280 (З) 3{11}  9000 м  слаб. снег  10/10 300 м 
[Frnb|Ns]
-0 -2 86 -2  1002.8  0.5  742  299           
00 19.02.17 310 (СЗ) 4{11}  11000 м  {снег}  4/4 300 м 
[Sc]
-3.4 -5.6 85 -6  1006.8  3.8  745  305           
03 19.02.17 280 (З) 11000 м    6/6 300 м 
[Sc]
-6.6 -9.3 81 -6  1009.6  2.7  747  309  -7.4    0.8  44  равномерный
сухой снег
100% 
06 19.02.17 140 (ЮВ) 13000 м    8/8 2000 м средняя 
[Ac trans]
-6.9 -8.8 86 -7  1009.9  0.3  747  310  -8.3         
09 19.02.17 170 (Ю) 7000 м  слаб. снег  10/10 2000 м 
[Ns]
-2.7 -5.2 83 -4  1007.5  -2.2  746  304           
12 19.02.17 220 (ЮЗ) 9000 м  слаб. снег  10/10 2000 м 
[Ns]
+0.9 -1 87 +2  1003.9  -3.4  743  299           
15 19.02.17 220 (ЮЗ) 8000 м  слаб. снег  10/10 2000 м 
[Ns]
-0.3 -1.6 91 1000.5  -3.3  741  299    +0.9     
18 19.02.17 230 (ЮЗ) 6000 м  слаб. снег  10/0 средняя 
[As op]
+0.4 -0.6 93 997.6  -2.9  738  297           
21 19.02.17 250 (З) 2{10}  12000 м  в посл. час снег  10/0 средняя 
[As op]
+1.5 -0.5 87 +1  996.4  -1.1  738  296           
00 20.02.17 250 (З) 2{12}  12000 м  {снег}  10/0 средняя 
[As op]
+1.9 -0.5 84 +1  995.2  -1.2  737  295           
03 20.02.17 250 (З) 4-12{12}  12000 м    8/8 300 м 
[Cu med, cong]
+2.3 -0.9 79 993.4  -1.7  735  294  -0.3    44  равномерный
мокрый или
старый снег
100% 
06 20.02.17 240 (ЮЗ) 3{12}  11000 м    10/10 300 м 
[Cu med, cong]
+2.2 -0.3 84 +1  992.2  -1.2  734  294           
09 20.02.17 260 (З) 4-14{15}  12000 м    10/10 300 м 
[Sc]
+3.5 -0.4 76 +2  991.8  -0.3  734  292           
12 20.02.17 260 (З) 4-11{16}  11000 м    10/10 300 м 
[Sc]
+3.6 -0.4 75 +2  991.7  0.1  734  292           
Время (UTC), дата Ветер
(°,м/с) 
Видим.   Явления Облачность Т
(°С)
Тd
(°С)
f(%) Тe
(°С)
Pmin
(гПа)
dP
(гПа)
Po
(мм)
O2
(г/м3)
Тmin Tmax R s Состояние
почвы

Для получения пояснительной информации подведите курсор к названию столбца.

ПОГОДА в Рыбинске - архив

Всё, что Вы хотите узнать о погоде в Рыбинске - удобно и подробно!

Выберите нужную дату (начиная с 1 января 2015* года) и нажмите кнопку "Найти".
Будут отображены архивные сводки погоды по пункту Рыбинск, начиная с указанной даты.


Отображать данные в формате CSV (для использования в таблицах Excel)


Внимание! Наш архив погоды предназначен исключительно для личного некоммерческого использования в познавательных целях. Если Вам необходимы официальные справки о состоянии погоды (для производственных, юридических, коммерческих и т.п. целей), обращайтесь в органы Росгидромета.

*Примечание: данная дата относится к архиву по метеостанциям СССР (Россия, СНГ, Балтия).
Архив по метеостанциям Зарубежной Европы и Азии (кроме Китая) хранится 10 дней, по другим регионам земного шара (Китай, Африка, Америка, Австралия, Океания) - 1 день.

Рыбинск - район местоположения метеостанции


Название, широта, долгота, высота метеостанции:
Рыбинск 58.1°ш. 38.7°д. 105 м над ур. моря [Российская Федерация]

Дополнительная информация

В oтличие oт бoльшинства пoгoдных сайтoв мы публикуем пoдрoбную метеoинфoрмацию в детальнoм прoфессиoнальнoм фoрмате.

Характеристики температуры и влажнoсти вoздуха измеряются на высoте 2 м в тени вдали oт зданий и деревьев.
Скoрoсть ветра измеряется на высoте 10 м (на урoвне рoста челoвека скoрoсть ветра ниже в 1.5-2 раза). Если метеoстанция нахoдится в гoрoде или в лесу, тo скoрoсть ветра занижена на 2-4 м/с пo сравнению с oткрытым местoм. Скoрoсть ветра над акватoриями крупных рек и oзёр, а также на вершинах хoлмoв на 2-5 м/с выше, чем в oбычных услoвиях.
Атмoсфернoе давление в разных тoчках местнoсти мoжет значительнo oтличаться oт давления на метеoстанции, в зависимoсти oт услoвий рельефа (при пoдъёме на 10 м давление пoнижается примернo на 1 мм рт.ст.).